Starlink 3927

operational
NORAD ID: 52569 Int'l Des: 2022-051 Owner: SPXS Country: US Constellation: starlink
LEOCIRCULAR

About Starlink 3927

Description loading...

Live Position

Loading 3D Globe...

Upcoming Passes

Altitude History

Altitude vs Time

uPlot chart will show altitude changes over time

Two-Line Element Set

1 52569U 22051AN 26062.20844471 .00000484 00000-0 48508-4 0 9998
2 52569 53.2174 148.2149 0001330 90.6569 269.4575 15.08833601210604
Epoch: Mar 3, 2026 • Age: 22 hours

Current Status

Altitude 553.1 km
Velocity 7.58 km/s
Sub-Earth Point -38.52°S, 26.99°W
Launch Date May 13, 2022
Age 3.8 years
Type internet

Technical Details

Classification Payload
Mass 297.00 kg
Dry Mass 275.00 kg
Total Mass 297.00 kg
Length 0.20 m
Diameter 2.80 m
Span 9.00 m
Shape Box + pan
Manufacturer SPXS
Bus Type Starlink
Phase Status In Orbit
Owner/State SPXS/US

Large Constellations

Loading constellations...